Tewantin Observation History
Time Wind Speed Temp Pressure Rel. Hum Rain
04/06:30am S 11-17 kts 14.7°c 1025.7 hPa n/a 0.0mm
04/06:00am S 11-15 kts 14.6°c 1025.2 hPa n/a 0.0mm
04/05:30am S 9-15 kts 14.7°c 1024.7 hPa n/a 0.0mm
04/05:00am S 7-10 kts 14.6°c 1024.3 hPa n/a 0.0mm
04/04:30am S 7-12 kts 14.9°c 1024.2 hPa n/a 0.0mm
04/04:00am S 9-15 kts 15.3°c 1024.0 hPa n/a 0.0mm
04/03:30am S 9-15 kts 15.4°c 1023.9 hPa n/a 0.0mm
04/03:00am S 10-16 kts 15.5°c 1024.0 hPa n/a 0.0mm
04/02:30am S 8-12 kts 15.5°c 1024.0 hPa n/a 0.0mm
04/02:00am S 6-8 kts 14.5°c 1024.1 hPa n/a 0.0mm
04/01:30am S 6-9 kts 14.6°c 1024.1 hPa n/a 0.0mm
04/01:00am S 6-8 kts 14.1°c 1024.4 hPa n/a 0.0mm
04/12:30am S 5-7 kts 14.1°c 1024.4 hPa n/a 0.0mm
04/12:00am S 6-8 kts 14.0°c 1024.3 hPa n/a 0.0mm
Time Wind Speed Temp Pressure Rel. Hum Rain
03/11:30pm S 5-7 kts 13.6°c 1024.4 hPa n/a 0.0mm
03/11:00pm S 4-6 kts 13.2°c 1024.7 hPa n/a 0.0mm
03/10:30pm S 4-5 kts 13.6°c 1024.9 hPa n/a 0.0mm
03/10:00pm S 4-5 kts 13.1°c 1024.8 hPa n/a 0.0mm
03/09:30pm S 1-3 kts 12.7°c 1024.6 hPa n/a 0.0mm
03/09:00pm SSW 4-5 kts 12.8°c 1024.4 hPa n/a 0.0mm
03/08:30pm SSW 3-5 kts 12.4°c 1024.1 hPa n/a 0.0mm
03/08:00pm SSW 3-4 kts 12.4°c 1023.8 hPa n/a 0.0mm
03/07:30pm SW 1-3 kts 12.5°c 1023.6 hPa n/a 0.0mm
03/07:00pm CALM 0 kts 13.1°c 1022.8 hPa n/a 0.0mm
03/06:30pm CALM 0 kts 13.8°c 1022.2 hPa n/a 0.0mm
03/06:00pm CALM 0 kts 15.1°c 1021.8 hPa n/a 0.0mm
03/05:30pm CALM 0 kts 16.4°c 1021.2 hPa n/a 0.0mm
03/05:00pm SSE 3-5 kts 17.2°c 1021.0 hPa n/a 0.0mm
03/04:30pm ESE 5-9 kts 18.0°c 1020.6 hPa n/a 0.0mm
03/04:00pm ESE 5-7 kts 18.5°c 1020.3 hPa n/a 0.0mm
03/03:30pm ESE 5-9 kts 18.8°c 1019.9 hPa n/a 0.0mm
03/03:00pm SE 5-8 kts 19.0°c 1019.8 hPa n/a 0.0mm
03/02:30pm ESE 8-10 kts 19.0°c 1019.8 hPa n/a 0.0mm
03/02:00pm ESE 6-9 kts 19.2°c 1019.8 hPa n/a 0.0mm
03/01:30pm ESE 6-9 kts 19.2°c 1019.7 hPa n/a 0.0mm
03/01:00pm ENE 4-7 kts 19.5°c 1019.7 hPa n/a 0.0mm
03/12:30pm ENE 3-5 kts 20.3°c 1020.2 hPa n/a 0.0mm
03/12:00pm CALM 0-3 kts 20.9°c 1020.5 hPa n/a 0.0mm
03/11:30am NE 3-4 kts 19.8°c 1021.0 hPa n/a 0.0mm
03/11:00am N 3-5 kts 19.3°c 1021.3 hPa n/a 0.0mm
03/10:30am SW 3-7 kts 18.7°c 1021.6 hPa n/a 0.0mm
03/10:00am SW 3-6 kts 18.0°c 1021.8 hPa n/a 0.0mm
03/09:30am WNW 4-6 kts 16.9°c 1021.7 hPa n/a 0.0mm
03/09:00am WSW 4-6 kts 15.8°c 1021.6 hPa n/a 0.0mm
03/08:30am WSW 4-7 kts 14.7°c 1021.5 hPa n/a 0.0mm
03/08:00am SW 5-9 kts 13.2°c 1021.3 hPa n/a 0.0mm
03/07:30am W 4-7 kts 11.9°c 1021.1 hPa n/a 0.0mm
03/07:00am SW 1-5 kts 9.7°c 1021.1 hPa n/a 0.0mm
03/06:30am WNW 2-4 kts 9.4°c 1020.7 hPa n/a 0.0mm
03/06:00am W 3-5 kts 10.0°c 1020.5 hPa n/a 0.0mm
03/05:30am NNW 3-4 kts 9.7°c 1020.2 hPa n/a 0.0mm
03/05:00am N 3-5 kts 10.2°c 1019.9 hPa n/a 0.0mm
03/04:30am WNW 2-7 kts 10.5°c 1019.5 hPa n/a 0.0mm
03/04:00am WSW 4-7 kts 11.1°c 1019.8 hPa n/a 0.0mm
03/03:30am W 3-5 kts 10.3°c 1019.8 hPa n/a 0.0mm
03/03:00am WNW 3-7 kts 10.9°c 1020.4 hPa n/a 0.0mm
03/02:30am W 3-6 kts 11.1°c 1020.4 hPa n/a 0.0mm
03/02:00am WNW 2-5 kts 10.9°c 1020.4 hPa n/a 0.0mm
03/01:30am WSW 2-5 kts 10.9°c 1020.7 hPa n/a 0.0mm
03/01:00am W 3-5 kts 11.6°c 1021.0 hPa n/a 0.0mm
03/12:30am WNW 3-5 kts 11.3°c 1021.1 hPa n/a 0.0mm
03/12:00am CALM 0-2 kts 11.2°c 1021.4 hPa n/a 0.0mm
Time Wind Speed Temp Pressure Rel. Hum Rain
02/11:30pm W 2-4 kts 11.7°c 1021.4 hPa n/a 0.0mm
02/11:00pm W 3-5 kts 12.0°c 1021.7 hPa n/a 0.0mm
02/10:30pm WNW 3-5 kts 12.6°c 1021.8 hPa n/a 0.0mm
02/10:00pm WNW 2-4 kts 12.3°c 1021.8 hPa n/a 0.0mm
02/09:30pm NNW 2-4 kts 12.2°c 1021.8 hPa n/a 0.0mm
02/09:00pm CALM 0-4 kts 12.6°c 1021.6 hPa n/a 0.0mm
02/08:30pm WNW 3-5 kts 13.3°c 1021.3 hPa n/a 0.0mm
02/08:00pm W 3-4 kts 13.2°c 1021.1 hPa n/a 0.0mm
02/07:30pm WSW 3-5 kts 14.2°c 1020.8 hPa n/a 0.0mm
02/07:00pm WNW 3-4 kts 14.2°c 1020.4 hPa n/a 0.0mm
02/06:30pm WSW 5-9 kts 16.3°c 1019.8 hPa n/a 0.0mm
02/06:00pm W 2-5 kts 14.8°c 1019.4 hPa n/a 0.0mm
02/05:30pm WNW 1-3 kts 15.9°c 1018.7 hPa n/a 0.0mm
02/05:00pm WSW 5-9 kts 18.3°c 1018.3 hPa n/a 0.0mm
02/04:30pm SW 5-11 kts 19.6°c 1018.1 hPa n/a 0.0mm
02/04:00pm SW 6-10 kts 19.7°c 1017.8 hPa n/a 0.0mm
02/03:30pm WSW 5-9 kts 20.4°c 1017.6 hPa n/a 0.0mm
02/03:00pm WSW 5-9 kts 20.8°c 1017.3 hPa n/a 0.0mm
02/02:30pm WSW 6-10 kts 20.9°c 1017.3 hPa n/a 0.0mm
02/02:00pm WSW 7-13 kts 21.7°c 1017.3 hPa n/a 0.0mm
02/01:30pm WSW 5-11 kts 21.8°c 1017.3 hPa n/a 0.0mm
02/01:00pm WSW 7-12 kts 20.9°c 1017.7 hPa n/a 0.0mm
02/12:30pm WSW 7-11 kts 21.2°c 1018.0 hPa n/a 0.0mm
02/12:00pm WSW 6-14 kts 20.6°c 1018.2 hPa n/a 0.0mm
02/11:30am WSW 6-11 kts 19.9°c 1018.6 hPa n/a 0.0mm
02/11:00am WSW 8-14 kts 18.9°c 1018.9 hPa n/a 0.0mm
02/10:30am WSW 8-14 kts 18.6°c 1019.1 hPa n/a 0.0mm
02/10:00am W 7-14 kts 18.7°c 1019.0 hPa n/a 0.0mm
02/09:30am SW 6-9 kts 18.0°c 1019.1 hPa n/a 0.0mm
02/09:00am SW 6-11 kts 17.5°c 1019.0 hPa n/a 0.0mm
02/08:30am WSW 4-8 kts 17.4°c 1019.0 hPa n/a 0.0mm
02/08:00am W 3-6 kts 16.9°c 1018.9 hPa n/a 0.0mm
02/07:30am W 4-7 kts 15.7°c 1018.8 hPa n/a 0.0mm
02/07:00am W 2-6 kts 14.6°c 1018.4 hPa n/a 0.0mm
02/06:30am WNW 3-8 kts 14.9°c 1018.0 hPa n/a 0.0mm
02/06:00am W 2-6 kts 15.1°c 1017.6 hPa n/a 0.0mm
02/05:30am W 1-3 kts 15.5°c 1017.2 hPa n/a 0.0mm
02/05:00am CALM 0-4 kts 16.2°c 1016.7 hPa n/a 0.0mm
02/04:30am WNW 1-3 kts 16.9°c 1016.4 hPa n/a 0.0mm
02/04:00am WSW 3-6 kts 17.7°c 1016.3 hPa n/a 0.0mm
02/03:30am W 3-5 kts 17.9°c 1015.9 hPa n/a 0.0mm
02/03:00am NNW 3-7 kts 18.1°c 1015.6 hPa n/a 0.0mm
02/02:30am W 3-7 kts 17.9°c 1015.6 hPa n/a 0.0mm
02/02:00am NNW 3-4 kts 18.2°c 1015.5 hPa n/a 0.0mm
02/01:30am NNW 3-4 kts 18.1°c 1015.6 hPa n/a 0.0mm
02/01:00am NNW 3-5 kts 18.0°c 1015.9 hPa n/a 0.0mm
02/12:30am NNW 3-5 kts 18.0°c 1016.0 hPa n/a 0.0mm
02/12:00am NNW 4-6 kts 18.2°c 1016.1 hPa n/a 0.0mm